Orbital Elements
Epoch 2022 Jan. 21.0 TT = JDT 2459600.5
T 2023 Apr. 30.74443 TT Rudenko
q 2.0327583 (2000.0) P Q
z -0.0002820 Peri. 245.81054 -0.00829594 -0.47104120
+/-0.0000325 Node 244.76814 +0.77299982 -0.56260365
e 1.0005733 Incl. 77.18905 -0.63435199 -0.67940954
From 275 observations 2021 Nov. 8-2022 Mar. 25, mean residual 0".6.
|